This demonstration page uses our WeatherBlox Daily Observations layout. Learn more.

Left ArrowRight Arrow

38.89511, -77.03637

Hourly Observations for May 24, 2017

Temp ( °F °C ) Dew Point ( °F °C ) Humidity (%) Winds ( mph kmh ) Pressure ( in mb ) Visibility ( mi km ) Precip ( " mm )
12:10 am 00:10 Cloudy 62 16.7 57 13.9 84 84 N 6 9 29.77 1008 10 16 0.00 0.00
12:47 am 00:47 Cloudy with Light Rain 63 17 59 15 88 88 N 8 13 29.77 1008 10 16 0.00 0.03
12:52 am 00:52 Cloudy with Light Rain 62 16.7 58 14.4 86 86 N 7 11 29.75 1008 10 16 0.00 0.03
1:52 am 01:52 Cloudy with Light Rain 61 16.1 58 14.4 90 90 NNE 12 19 29.72 1007 10 16 0.01 0.25
2:52 am 02:52 Cloudy with Light Rain 60 15.6 57 13.9 90 90 ENE 7 11 29.72 1007 10 16 0.02 0.51
3:52 am 03:52 Cloudy with Light Rain 59 15 57 13.9 93 93 NE 8 13 29.71 1006 10 16 0.01 0.25
4:52 am 04:52 Cloudy with Light Rain 59 15 56 13.3 90 90 ENE 8 13 29.71 1006 10 16 0.03 0.76
5:52 am 05:52 Cloudy 58 14.4 55 12.8 90 90 NE 10 17 29.70 1006 10 16 0.00 0.03
6:52 am 06:52 Cloudy 58 14.4 54 12.2 87 87 ENE 8 13 29.72 1007 10 16 0.00 0.00
7:52 am 07:52 Cloudy with Light Rain 59 15 55 12.8 87 87 Calm 29.75 1007 10 16 0.00 0.03
8:29 am 08:29 Cloudy 61 16.1 55 12.8 81 81 NE 6 9 29.74 1007 10 16 0.00 0.03
8:52 am 08:52 Cloudy 61 16.1 54 12.2 78 78 NE 8 13 29.75 1007 10 16 0.00 0.03
9:52 am 09:52 Cloudy 62 16.7 56 13.3 80 80 NE 7 11 29.74 1007 10 16 0.00 0.00
10:52 am 10:52 Cloudy 63 17.2 56 13.3 78 78 ENE 5 7 29.73 1007 10 16 0.00 0.00
11:52 am 11:52 Cloudy 64 17.8 57 13.9 78 78 ESE 6 9 29.74 1007 10 16 0.00 0.00
12:00 pm 12:00 Cloudy 64 17.8 57 13.9 78 78 ESE 3 6 29.74 1007 10 16 0.00 0.00
12:52 pm 12:52 Cloudy 65 18.3 57 13.9 76 76 ESE 9 15 29.72 1007 10 16 0.00 0.00
1:52 pm 13:52 Cloudy 64 17.8 57 13.9 78 78 E 12 19 29.74 1007 10 16 0.00 0.00
2:52 pm 14:52 Cloudy 64 17.8 58 14.4 81 81 SE 13 20 29.73 1007 10 16 0.00 0.00
3:23 pm 15:23 Cloudy 64 17.8 58 14.4 81 81 SE 6 9 29.74 1007 10 16 0.00 0.00
3:42 pm 15:42 Cloudy 64 17.8 58 14.4 81 81 SE 7 11 29.74 1007 10 16 0.00 0.00
3:52 pm 15:52 Cloudy 64 17.8 58 14.4 81 81 SE 9 15 29.74 1007 10 16 0.00 0.00
4:52 pm 16:52 Cloudy 64 17.8 58 14.4 81 81 ESE 13 20 29.72 1007 10 16 0.00 0.00
5:23 pm 17:23 Cloudy 65 18.3 59 15 81 81 SE 9 15 29.71 1006 10 16 0.00 0.00
5:52 pm 17:52 Cloudy 65 18.3 58 14.4 78 78 ESE 12 19 29.71 1006 10 16 0.00 0.00
6:52 pm 18:52 Cloudy 65 18.3 58 14.4 78 78 SE 13 20 29.71 1006 10 16 0.00 0.00
7:27 pm 19:27 Cloudy 65 18.3 58 14.4 78 78 ESE 15 24 29.71 1006 10 16 0.00 0.00
7:52 pm 19:52 Cloudy 65 18.3 58 14.4 78 78 ESE 10 17 29.71 1006 10 16 0.00 0.00
8:22 pm 20:22 Cloudy 64 17.8 57 13.9 78 78 E 15 24 29.71 1006 10 16 0.00 0.00
8:52 pm 20:52 Cloudy 64 17.8 57 13.9 78 78 E 12 19 29.70 1006 10 16 0.00 0.00
8:57 pm 20:57 Cloudy 63 17.2 57 13.9 81 81 E 9 15 29.71 1006 10 16 0.00 0.00
9:52 pm 21:52 Cloudy 63 17.2 57 13.9 81 81 E 13 20 29.71 1006 10 16 0.00 0.00
10:52 pm 22:52 Cloudy with Light Rain 62 16.7 57 13.9 84 84 E 13 20 29.70 1006 10 16 0.00 0.03
11:21 pm 23:21 Cloudy with Rain 60 15.6 58 14.4 93 93 SSE 12 19 29.74 1007 4 6 0.05 1.27
11:38 pm 23:38 Cloudy with Heavy Rain 59 15 57 13.9 93 93 ENE 13 20 29.68 1005 4 6 0.15 3.81
11:41 pm 23:41 Cloudy with Rain 59 15 58 14.4 96 96 ENE 12 19 29.68 1005 5 8 0.16 4.06
11:52 pm 23:52 Cloudy with Light Rain 59 15 58 14.4 96 96 ENE 10 17 29.68 1005 5 8 0.17 4.32

Powered by AerisWeather